Location: Poughquag
(41.6090°N, 73.6820°W)
Time: 12:03:28
(UTC-04:00)

Tiros 1 despin weight - Pass Details

Date: 02 June 2020
Orbit: 593 x 642 km, 48.2° (Epoch: 07 July)

Event Time Altitude Azimuth Distance (km) Brightness Sun altitude
Rises 15:00:26 0° 297° (WNW) 2,895 ? 57.1°
Reaches altitude 10° 15:02:47 10° 301° (WNW) 1,978 ? 56.7°
Maximum altitude 15:07:18 64° 23° (NNE) 674 ? 55.9°
Drops below altitude 10° 15:11:44 10° 105° (ESE) 1,942 ? 55.2°
Sets 15:14:01 0° 109° (ESE) 2,836 ? 54.8°
